GFSCGP_700_rhum_159.txt.gz
RH
30 22 22 23 26 24 31 31 31 32 25 45 44 48 54 61 58 60 62 70 64 66 75 75 70 66 66 83 73 68 72 48 68 79 83 83 78 76 73 79 59 64 45 78
23 19 13 10 10 18 25 28 22 17 23 47 42 40 53 60 57 52 60 66 63 67 73 76 62 62 59 69 75 72 68 51 48 55 69 79 72 71 71 75 61 58 61 49
19 13 11 12 14 19 24 18 16 15 24 47 46 40 42 44 51 60 62 62 64 64 64 70 61 58 64 66 62 64 63 60 57 49 47 60 68 70 68 59 56 53 51 40
22 12 14 15 14 14 13 13 13 14 34 47 46 46 30 32 36 47 58 59 62 64 63 66 65 61 57 67 64 59 57 58 59 56 48 44 48 58 62 63 60 44 40 37
14 12 12 13 13 12 12 15 14 14 32 42 52 52 30 34 28 30 49 53 61 57 60 62 64 63 66 57 63 60 54 54 57 55 55 54 52 58 68 55 53 34 37 34
24 16 16 18 15 20 18 20 16 14 20 62 32 38 19 24 26 25 36 49 51 54 57 60 64 65 69 70 62 64 53 49 49 56 58 58 56 55 55 45 35 41 31 29
26 24 20 19 20 20 21 19 14 16 19 24 12 24 16 19 19 21 24 31 49 48 53 56 60 64 66 70 61 55 56 65 66 47 51 54 54 49 53 54 44 35 68 37
27 26 19 18 20 21 21 17 14 19 21 16 14 28 16 17 22 26 31 41 50 47 47 48 54 59 61 66 68 63 60 58 73 56 44 46 49 47 45 52 54 52 63 60
27 24 19 19 20 20 19 18 17 13 15 17 12 14 11 14 16 24 24 36 41 50 51 46 52 57 61 64 68 69 69 65 67 73 44 44 47 46 44 47 46 45 57 62
24 26 21 18 18 18 19 18 19 17 20 20 15 16 12 12 12 12 21 30 38 40 47 48 55 56 58 62 66 72 70 72 70 79 65 42 45 48 49 49 46 50 54 58
22 24 22 22 20 18 18 19 18 16 16 24 26 17 12 15 15 17 18 32 36 33 44 48 50 54 55 53 66 71 70 73 72 72 70 52 41 44 47 46 45 46 51 54
26 25 24 24 21 20 19 19 17 17 16 16 16 14 12 14 14 19 24 32 34 38 35 44 52 53 56 48 53 63 70 71 82 83 86 68 61 49 44 39 39 41 44 50
27 26 25 24 22 21 20 18 19 18 16 16 20 15 12 14 14 16 24 30 33 37 37 45 51 53 52 48 44 61 70 76 79 87 93 99 84 70 70 68 61 53 52 58
28 26 27 26 23 21 21 19 21 20 19 17 16 15 13 14 15 18 25 30 35 31 32 43 52 51 48 54 51 53 76 81 84 90 95 100 86 80 85 82 81 84 84 78
32 28 31 29 25 26 26 24 22 22 22 23 20 18 17 16 15 23 27 30 29 29 35 43 54 54 50 54 56 57 78 84 86 93 100 90 98 100 90 85 87 89 88 74
44 43 42 33 28 27 26 24 24 23 22 22 23 25 23 22 20 22 26 25 28 34 39 49 53 53 45 58 56 61 80 82 86 80 91 98 76 79 56 56 44 44 50 56
51 51 50 43 33 30 30 25 23 22 22 22 22 24 25 24 26 23 29 28 27 26 46 46 47 52 50 47 51 68 65 69 59 63 76 64 84 62 54 38 45 43 39 40
52 52 52 52 50 49 31 29 28 28 22 22 21 22 26 25 24 24 25 27 31 40 39 42 42 45 42 47 61 69 63 52 52 75 66 63 62 54 52 51 51 47 41 44
44 42 46 52 51 44 33 38 38 37 30 26 27 28 25 26 25 24 28 33 41 47 46 44 51 48 42 50 47 78 77 70 53 56 65 62 68 49 52 52 46 48 51 49
41 43 42 45 60 63 45 37 38 40 40 35 34 34 32 26 27 24 28 34 47 50 46 51 53 48 54 56 78 77 60 61 60 63 59 50 51 51 45 50 52 54 46 38
42 52 57 48 51 48 48 45 46 44 39 37 37 36 35 30 26 27 29 42 46 47 54 55 52 52 56 72 77 74 67 61 52 51 49 48 48 48 51 48 40 39 39 37
68 68 66 66 55 54 52 47 48 46 44 42 39 39 38 34 30 32 33 36 47 47 55 50 54 49 53 59 57 50 46 52 50 48 49 49 47 42 34 32 39 38 47 30
74 74 69 72 65 64 52 48 50 46 44 42 38 34 41 40 35 32 34 37 44 45 53 55 59 50 58 58 60 65 56 52 47 43 35 31 29 28 36 42 50 52 21 20
69 69 74 69 59 58 61 63 53 51 44 42 40 36 34 39 37 39 40 40 39 35 47 51 49 50 57 60 57 54 54 45 38 31 29 32 41 46 50 57 56 24 25 19
64 69 58 52 51 59 50 54 54 56 56 43 50 41 36 57 44 42 44 39 35 38 41 51 57 58 58 58 58 59 50 39 29 35 48 54 59 58 60 44 36 32 20 16
54 52 57 45 52 88 68 68 57 68 77 60 53 48 50 64 67 44 49 42 27 28 28 30 28 38 36 36 35 36 36 35 51 61 62 65 58 51 45 43 21 13 13 11

GFSCGP_700_rhum_162.txt.gz
RH
29 34 36 34 28 24 24 32 34 38 27 23 27 45 54 52 58 51 54 63 66 61 74 77 76 78 70 72 69 68 60 80 83 87 86 82 79 62 48 61 65 82 67 53
27 30 31 30 25 16 21 27 30 27 18 17 33 46 47 54 49 57 58 56 55 61 67 74 73 70 65 73 79 71 66 48 72 78 83 86 80 74 67 77 69 65 65 54
23 17 23 21 19 12 16 28 29 20 14 16 29 41 42 41 45 49 47 54 54 55 63 67 71 61 67 57 65 71 64 56 47 58 79 84 80 76 67 72 67 66 61 56
17 16 15 19 16 15 16 31 23 13 13 20 44 52 37 35 37 39 40 42 56 50 55 65 69 69 64 68 57 66 67 61 60 48 47 70 71 65 67 67 72 63 55 57
16 15 14 15 13 16 23 15 20 20 15 24 41 56 38 34 16 25 27 30 39 49 48 51 61 67 66 68 68 53 58 63 60 55 48 44 45 57 63 71 75 71 63 47
26 20 17 15 17 19 18 23 22 20 19 66 25 53 35 14 14 19 23 28 30 45 50 47 58 66 68 69 66 62 51 53 56 55 55 55 52 53 59 68 70 69 61 43
29 26 24 19 18 18 20 22 20 19 33 62 18 41 16 12 14 16 21 26 32 40 53 42 50 62 69 72 68 60 50 50 47 46 52 54 57 59 60 63 66 58 66 49
28 26 23 15 16 17 20 21 21 22 25 18 15 20 12 12 15 16 19 21 33 43 52 44 49 57 63 70 74 60 53 64 70 55 46 48 52 52 54 62 66 53 50 60
29 27 23 22 17 18 21 20 19 16 18 19 14 13 13 13 15 15 16 21 26 37 47 38 44 52 58 64 68 71 66 58 75 78 54 47 49 48 50 53 60 60 73 70
22 27 22 24 22 21 20 20 19 19 21 22 17 14 13 11 12 14 15 17 18 35 40 47 42 50 56 60 65 70 74 74 77 80 80 56 47 48 49 51 51 50 54 57
21 23 20 22 24 22 19 20 19 20 19 26 28 17 12 12 13 14 15 20 22 35 38 42 41 48 53 56 63 67 72 76 78 79 66 70 50 46 45 43 46 51 55 57
26 28 26 24 21 22 24 22 20 18 18 17 18 16 14 14 12 14 14 17 26 37 33 41 44 49 52 54 59 66 71 73 72 81 78 66 69 54 44 39 40 42 45 50
28 28 26 24 23 22 23 22 22 21 20 18 22 17 16 15 14 13 14 17 24 33 35 38 45 47 53 53 52 58 65 71 75 84 84 76 74 72 68 63 57 55 50 45
32 33 28 27 26 27 24 22 21 20 20 19 19 18 17 16 15 14 16 19 23 32 35 34 38 44 50 53 54 50 59 69 71 74 81 83 91 83 89 78 75 76 77 74
34 34 34 29 26 27 27 26 22 21 22 20 20 20 18 18 16 15 22 22 23 25 28 29 34 42 49 48 55 60 53 72 78 80 82 84 74 97 85 82 81 81 78 80
45 45 46 39 31 31 30 26 28 26 24 24 22 21 20 20 19 16 16 21 25 23 23 28 33 40 50 52 45 59 58 75 82 84 85 90 93 98 99 81 71 68 55 42
52 49 52 52 44 42 40 30 26 25 24 24 23 21 21 23 21 18 18 20 19 23 26 24 29 45 49 51 54 48 56 68 84 86 86 93 95 70 71 72 73 39 42 41
53 54 53 53 52 63 43 31 28 26 24 24 23 22 22 22 23 22 22 25 27 26 26 26 40 48 44 49 52 53 53 59 85 92 93 73 60 58 61 77 51 50 48 47
48 48 46 50 51 51 42 45 45 41 37 34 30 28 24 22 21 22 22 22 24 25 27 37 47 46 48 48 54 60 59 67 87 87 68 53 74 69 71 65 58 54 49 43
44 45 45 49 57 69 47 39 44 39 40 38 30 34 35 33 27 22 22 22 24 30 31 48 43 48 56 53 51 53 54 69 88 66 58 65 55 66 73 60 54 49 48 47
48 48 55 54 52 48 48 50 51 50 40 37 37 37 36 34 31 26 24 24 26 32 35 47 43 56 58 56 66 70 64 98 69 68 54 59 61 61 56 51 49 48 48 39
58 63 63 63 63 58 49 44 44 50 49 43 47 40 37 32 34 32 31 26 28 30 34 34 49 61 60 61 66 78 68 81 68 68 65 59 56 52 52 47 45 40 31 36
68 61 64 65 61 62 67 66 60 44 47 49 48 41 39 30 30 35 39 34 36 36 34 42 53 57 52 58 56 58 58 62 72 66 54 51 49 48 39 30 30 33 41 48
76 72 78 74 65 60 58 62 59 59 55 52 47 41 37 34 31 30 34 45 48 41 41 49 55 57 60 51 52 58 67 72 70 61 50 43 42 34 30 36 44 48 51 32
75 74 68 58 54 54 58 56 52 52 55 56 51 45 40 34 33 38 35 40 56 52 54 53 55 55 61 59 65 73 84 80 70 71 53 41 30 42 50 54 52 41 32 14
60 56 63 52 46 58 43 52 63 54 55 57 53 45 43 38 31 42 38 44 57 57 58 54 54 61 64 73 69 71 76 83 76 49 33 42 53 59 56 46 40 21 18 4

GFSCGP_700_rhum_165.txt.gz
RH
28 34 34 34 38 29 28 27 30 31 30 22 16 24 43 46 49 53 53 60 65 60 70 69 76 72 73 70 59 60 61 75 82 88 86 81 71 46 37 32 30 54 62 47
24 30 32 33 35 27 22 24 31 31 26 18 14 28 37 43 42 48 56 60 58 67 65 66 68 70 66 76 68 62 54 80 83 86 88 87 77 64 47 44 56 62 75 63
18 22 27 31 34 31 26 19 24 27 27 14 22 30 31 36 36 38 41 51 60 61 62 64 60 61 67 62 74 74 60 48 76 83 86 86 84 67 59 60 76 76 66 67
15 17 18 25 30 27 21 17 13 21 16 19 18 33 31 30 36 26 29 32 40 54 54 63 66 68 63 65 67 75 61 47 46 63 76 80 80 72 80 80 77 74 67 62
15 12 14 18 16 19 18 14 17 20 22 22 31 46 32 14 21 18 20 22 25 36 54 55 61 67 69 69 56 60 60 56 54 44 48 73 76 80 80 71 69 69 72 66
19 20 18 16 14 16 18 23 23 21 21 32 27 34 20 24 12 14 16 17 21 29 49 49 56 64 70 71 68 50 54 56 55 55 45 42 48 63 64 65 65 75 72 69
28 27 27 25 21 18 17 22 21 20 30 19 19 45 21 14 12 11 14 15 24 28 39 48 51 59 68 74 64 56 44 47 53 53 54 55 54 49 49 55 72 79 74 67
31 27 24 24 22 24 18 21 20 24 19 16 15 19 16 14 13 13 16 14 21 21 35 50 45 57 64 70 73 67 49 44 43 45 52 57 58 58 59 60 62 73 58 56
32 28 24 25 24 24 19 22 20 20 19 18 17 16 17 16 10 14 15 14 16 18 37 48 43 53 61 68 72 67 50 43 46 48 48 50 56 56 54 57 60 63 56 49
28 29 22 22 24 23 22 19 19 20 23 23 19 20 18 14 12 12 15 15 19 18 33 46 43 50 57 62 67 72 69 50 63 64 53 45 48 51 53 53 53 52 60 63
25 28 24 24 22 23 22 22 21 21 21 20 21 19 15 14 14 14 14 14 16 22 33 45 38 46 54 58 63 68 72 74 72 76 71 62 49 47 48 46 48 51 53 55
24 26 28 26 22 22 23 23 23 22 24 21 21 18 17 16 15 15 13 14 17 27 36 40 42 47 53 56 60 62 66 71 78 78 81 71 77 53 43 41 45 49 51 54
26 29 28 25 24 25 26 22 22 23 23 23 22 19 18 17 16 14 14 14 20 28 35 36 44 42 46 54 58 60 65 67 73 76 78 78 65 68 61 52 50 46 44 42
31 32 30 25 27 26 26 24 24 24 23 21 22 20 18 17 17 15 14 16 22 26 32 36 40 44 48 51 55 60 64 67 70 75 75 55 73 72 76 76 68 66 64 64
36 39 35 32 30 30 30 28 27 25 24 23 19 20 19 18 17 15 14 21 23 24 27 29 35 39 45 50 55 58 63 68 68 73 74 74 81 81 80 81 69 67 68 78
44 46 43 42 38 36 36 34 33 28 28 23 22 22 20 19 18 18 15 15 23 22 23 26 30 33 36 44 52 56 60 59 63 70 73 79 77 80 82 62 64 66 80 79
50 49 49 47 48 42 44 43 38 33 27 26 27 23 22 21 19 19 17 16 21 23 20 21 24 33 37 41 52 56 59 61 62 75 80 84 84 86 81 74 86 70 71 48
52 52 51 50 55 52 42 41 36 32 29 27 26 24 24 23 23 21 19 18 16 19 22 24 27 31 32 46 49 51 57 54 61 71 81 87 93 90 83 74 55 62 75 52
49 51 53 51 47 44 47 45 47 50 44 38 28 26 24 23 22 23 22 21 20 25 29 25 26 28 38 44 43 49 56 53 61 71 83 88 92 97 69 76 64 65 64 52
45 46 50 52 48 45 43 41 38 40 50 40 40 32 29 27 26 21 21 22 22 22 26 28 29 33 45 39 43 45 50 61 62 70 74 85 80 75 66 69 70 72 55 49
47 47 54 53 54 49 46 44 40 57 46 44 40 41 36 33 29 25 24 23 21 22 25 30 38 45 42 43 52 54 51 52 53 68 77 86 68 53 70 72 62 54 50 47
52 54 56 62 61 56 52 46 56 62 58 46 46 43 43 37 32 30 27 24 22 24 27 36 46 46 45 49 51 61 62 66 81 83 98 91 60 67 64 57 51 48 37 28
64 60 68 64 60 54 59 57 54 56 56 51 52 51 44 40 35 32 32 35 37 28 33 41 49 49 52 54 56 68 62 76 85 92 86 86 73 60 54 52 42 34 27 27
73 70 72 70 68 61 63 63 66 65 64 59 47 48 47 43 42 38 36 37 44 37 46 46 48 54 61 61 56 65 72 69 66 78 82 82 66 57 47 39 32 34 44 49
84 75 81 81 77 68 62 63 63 59 61 58 55 52 50 46 39 34 34 36 38 46 53 59 58 64 68 69 63 63 68 75 64 69 84 74 61 51 37 38 47 55 43 24
82 74 83 84 60 58 52 44 46 56 55 58 59 48 51 48 44 34 31 33 37 47 59 65 67 69 71 65 64 69 69 74 83 81 80 66 41 38 51 58 51 39 23 12

GFSCGP_700_rhum_168.txt.gz
RH
26 26 28 27 28 28 25 28 29 28 28 30 31 31 41 56 44 51 66 70 78 72 82 63 65 59 67 68 61 50 59 76 80 82 83 87 79 82 72 37 32 31 45 46
21 18 22 27 28 27 27 24 24 26 30 36 24 28 38 44 40 42 50 58 64 75 83 62 61 58 60 66 62 61 56 74 74 80 86 79 78 76 46 33 30 63 61 50
14 16 18 25 25 27 26 24 24 21 23 27 28 22 31 39 33 34 38 48 63 75 76 65 57 55 55 60 58 64 57 77 81 84 85 80 72 63 36 33 37 56 70 82
14 15 20 21 23 24 22 22 21 19 21 22 28 20 22 30 38 31 23 19 29 57 72 63 64 59 59 56 63 66 57 63 72 81 86 82 79 66 51 49 77 76 75 64
14 17 18 16 16 20 20 20 18 17 22 25 20 24 18 24 22 25 32 21 24 49 60 62 59 63 61 65 50 62 57 42 56 71 79 84 85 80 72 66 69 73 69 69
15 20 20 17 16 16 16 17 17 21 26 24 18 18 15 17 23 20 20 26 32 25 41 57 57 62 68 65 65 50 55 49 42 42 67 75 80 76 75 74 70 68 63 66
22 21 19 20 17 16 17 15 14 19 20 20 20 22 19 18 17 16 18 20 24 20 31 52 52 54 65 62 58 60 47 50 49 47 39 50 69 75 70 68 69 62 68 57
24 22 23 22 19 16 17 14 13 22 18 14 20 16 16 16 16 17 18 20 15 17 24 44 48 47 60 62 58 60 46 44 50 50 45 44 44 45 50 49 50 59 67 76
23 24 26 25 23 19 17 20 14 15 15 15 14 14 15 16 16 14 15 21 16 18 19 36 51 49 59 66 62 66 53 43 40 47 52 53 55 53 51 52 54 56 63 66
24 26 24 24 24 24 21 19 16 15 18 20 14 16 18 17 15 14 16 19 21 16 20 40 49 48 53 62 64 59 50 39 40 42 42 46 51 53 54 55 56 58 63 68
26 25 22 23 22 20 23 21 18 16 16 16 17 15 16 18 16 15 16 18 14 15 21 36 49 49 50 55 62 50 62 50 45 44 43 41 42 44 47 47 48 49 51 55
26 25 24 23 21 22 21 19 16 17 17 18 18 16 16 18 17 18 17 15 14 18 25 35 48 44 46 52 55 56 60 61 65 71 61 50 53 42 41 41 43 45 47 50
29 25 23 23 22 24 23 21 20 19 17 17 18 17 17 19 20 19 19 13 14 20 33 37 43 36 40 48 53 58 65 66 72 72 72 80 70 58 38 39 41 42 44 48
29 24 25 20 19 27 26 24 22 22 19 19 18 18 19 18 19 19 19 13 14 21 31 38 39 41 44 53 57 60 63 65 69 73 76 79 76 65 64 54 44 38 35 37
36 32 30 30 27 26 28 28 28 26 24 22 19 18 18 19 19 19 18 14 18 23 30 34 38 43 44 47 53 59 63 64 66 68 73 76 72 75 68 67 67 66 64 63
40 39 39 42 36 33 30 29 30 29 27 26 24 22 21 20 24 18 25 17 15 25 30 32 35 40 43 46 48 54 61 63 66 68 71 73 74 64 79 79 74 71 71 74
47 43 44 42 36 36 37 34 33 31 31 28 25 23 23 24 28 23 18 18 18 22 28 28 30 32 36 42 48 53 58 62 66 69 69 68 72 71 73 80 80 82 70 80
51 53 48 45 42 40 36 35 36 38 35 30 29 28 27 34 25 22 22 19 19 18 24 27 28 29 34 36 39 48 55 59 62 66 66 66 69 71 75 72 81 82 79 82
48 51 49 46 42 37 35 39 41 42 41 45 52 45 41 28 23 26 24 21 19 20 21 24 26 24 37 37 39 47 55 52 56 63 62 71 77 83 84 82 84 82 74 61
47 46 51 47 43 40 35 35 35 39 48 48 49 47 33 25 32 34 26 23 23 23 23 28 32 30 32 43 44 44 41 38 43 55 56 64 82 87 90 86 85 67 79 72
49 53 50 47 48 42 39 48 43 53 44 64 52 44 41 36 41 36 33 27 22 21 22 22 23 29 36 44 43 37 36 38 42 45 48 62 74 70 68 82 69 72 75 76
47 47 45 44 43 40 47 56 50 65 70 58 57 51 46 48 44 36 36 31 26 24 21 20 22 34 46 47 42 34 34 41 49 52 56 80 82 86 87 81 74 74 68 53
59 48 44 42 40 56 48 55 58 54 52 57 61 59 54 52 50 43 39 38 30 27 25 26 33 51 52 49 45 37 37 46 54 60 81 87 97 98 87 82 77 62 54 43
75 77 73 67 60 64 70 69 73 79 66 62 55 50 49 50 53 48 48 41 36 32 34 34 51 58 59 54 50 38 45 48 61 64 73 98 98 92 81 69 67 49 38 28
69 90 85 71 72 77 89 76 90 85 62 60 61 61 57 48 42 48 44 41 38 38 40 44 58 65 64 62 57 50 49 48 65 65 75 75 82 69 64 52 44 34 33 45
63 64 69 65 70 83 83 84 83 64 53 52 56 56 59 54 50 43 44 45 40 35 36 54 66 72 69 70 64 58 50 56 66 65 63 65 67 70 63 44 43 51 47 24

GFSCGP_700_rhum_171.txt.gz
RH
21 21 20 21 21 20 22 22 24 27 26 28 30 28 26 39 65 68 69 70 68 72 79 87 92 86 59 59 50 51 44 68 67 78 79 82 72 78 83 86 86 29 25 27
16 18 16 18 21 22 22 19 20 22 28 28 24 23 26 34 48 59 65 66 70 67 71 84 87 93 86 56 57 49 47 71 72 76 80 82 78 81 78 62 39 27 28 40
13 13 13 15 20 22 19 19 18 20 22 21 21 20 18 34 42 51 58 63 64 66 67 80 87 88 89 54 56 51 52 70 77 81 78 78 80 74 74 39 29 47 55 48
12 12 13 14 17 18 18 17 18 19 20 19 23 17 18 23 38 44 51 56 58 62 67 74 84 86 81 49 52 52 56 64 69 74 76 80 70 73 69 33 27 39 52 66
11 12 11 14 13 13 14 16 16 16 17 19 19 19 16 19 22 23 38 45 47 54 60 68 80 89 88 83 51 47 57 50 69 73 75 74 70 68 46 35 50 69 72 68
15 14 14 12 12 12 14 14 13 13 13 17 18 18 14 14 20 20 19 27 41 44 52 63 72 84 89 92 59 41 55 44 57 64 70 76 77 71 69 61 71 66 76 69
19 15 14 15 14 13 13 12 11 12 12 13 15 16 15 16 17 17 16 19 20 31 45 57 70 80 88 92 50 42 44 47 38 43 64 73 77 76 74 70 68 79 99 99
19 17 17 16 15 13 13 11 10 14 13 13 15 15 14 15 14 14 15 16 20 23 30 50 66 76 87 85 44 48 40 44 45 44 37 61 68 70 72 69 70 66 87 100
18 19 21 19 18 16 14 15 12 10 10 11 13 13 12 13 15 14 12 16 18 25 32 45 61 74 83 78 43 47 43 34 43 48 49 39 42 58 62 59 62 58 53 60
20 21 22 20 20 19 16 14 15 14 15 17 13 14 14 16 16 14 14 16 20 28 37 45 58 71 80 70 51 50 56 34 33 40 48 47 44 44 44 43 44 46 49 52
22 21 19 20 21 19 19 20 16 15 13 13 14 13 16 17 18 16 15 16 18 24 32 34 61 73 78 76 61 62 61 31 32 34 38 45 48 48 50 51 51 52 54 51
22 21 20 20 19 19 18 18 18 16 16 15 14 13 13 15 16 17 17 17 19 22 23 22 29 72 79 74 56 58 53 33 28 28 31 33 38 41 43 46 47 46 45 46
22 21 20 20 18 18 19 19 17 16 14 14 15 14 16 17 18 18 18 19 22 21 18 23 31 39 56 52 48 51 51 42 43 46 45 43 38 39 38 40 43 44 44 44
27 24 20 18 17 20 23 21 19 17 16 16 16 16 16 17 17 18 19 23 26 27 18 26 35 37 47 42 42 51 50 52 54 55 61 60 65 73 65 59 42 40 41 41
32 27 24 22 20 20 21 22 22 21 20 20 18 17 17 18 19 19 20 24 34 47 22 26 38 37 42 38 42 48 50 53 62 63 64 65 70 72 75 65 62 59 51 46
34 32 29 28 26 25 26 25 23 22 21 22 22 22 20 20 21 22 25 24 36 45 63 40 38 38 40 41 41 49 54 58 61 62 64 64 66 71 61 71 68 63 63 65
39 34 32 32 30 29 30 28 27 26 24 24 24 22 22 21 21 22 28 38 46 38 65 50 36 39 40 44 44 48 54 58 60 59 60 64 66 72 70 73 73 70 72 75
41 41 40 39 36 38 32 28 28 28 28 26 27 25 24 24 27 36 49 46 26 20 23 29 37 37 37 41 45 47 48 52 57 62 64 65 67 68 71 74 73 69 74 83
40 40 39 40 38 34 31 30 30 30 30 32 34 31 36 37 41 38 50 28 23 22 22 22 30 35 33 33 34 38 44 50 54 60 64 67 70 70 72 72 74 76 75 81
37 38 40 38 38 36 30 30 36 40 36 31 34 49 50 57 52 54 60 43 29 25 25 24 27 30 32 36 38 35 39 46 55 59 57 56 67 72 74 73 73 71 81 84
43 41 38 37 38 33 34 35 37 46 38 60 76 79 84 84 78 65 61 43 36 28 25 24 23 29 33 33 39 42 39 42 45 43 40 43 55 60 69 69 72 63 75 78
43 54 49 37 36 39 33 34 36 46 64 79 89 92 97 68 50 65 67 54 47 33 28 27 26 23 26 33 42 46 43 36 29 30 35 41 47 52 65 78 80 75 77 68
44 40 40 40 47 62 68 63 64 67 67 75 88 91 93 90 75 88 69 64 66 39 34 28 26 26 34 44 49 48 42 35 34 36 40 46 48 58 84 97 91 83 83 64
60 62 72 66 47 57 62 76 76 68 78 86 91 83 86 86 76 70 83 67 73 56 36 35 27 27 31 43 52 49 44 38 39 38 45 48 58 86 100 99 98 96 83 70
52 56 66 68 71 57 60 75 82 79 83 77 58 77 84 78 76 61 50 45 49 60 39 38 31 37 39 56 58 54 47 42 39 33 44 49 49 92 100 100 98 85 78 57
50 48 49 47 54 72 67 72 81 80 85 84 74 77 87 75 80 59 50 45 44 48 40 36 39 46 54 63 60 59 50 45 34 32 44 49 56 55 77 68 71 76 62 53

GFSCGP_700_rhum_174.txt.gz
RH
20 20 19 19 20 19 19 19 21 21 24 26 28 28 26 37 49 60 63 65 66 72 80 84 90 94 87 52 57 50 46 61 69 76 69 71 62 62 81 72 59 35 25 20
15 17 16 16 16 18 18 18 19 18 20 24 23 21 22 23 43 54 60 60 63 65 73 81 81 94 81 50 52 50 46 52 66 73 76 73 62 58 79 81 79 93 82 20
13 12 14 14 14 16 18 20 16 17 19 21 19 20 20 21 35 46 54 56 59 62 64 76 79 90 89 46 48 53 45 53 69 67 75 77 79 67 77 72 73 52 23 24
14 12 11 11 11 13 16 15 15 16 17 18 20 20 18 22 36 42 46 51 52 57 61 64 77 85 94 60 45 49 46 50 65 76 74 76 74 68 71 70 35 26 23 42
10 11 11 10 11 12 14 13 14 15 16 15 16 17 18 17 24 37 42 42 49 50 56 62 70 82 89 91 51 45 50 50 61 67 74 74 78 80 76 76 35 24 45 52
14 10 12 11 10 12 11 11 13 12 12 13 12 15 17 15 19 21 21 38 43 44 50 56 63 73 83 92 79 47 45 53 50 67 71 69 75 70 69 66 34 33 53 61
19 17 14 13 13 12 11 11 11 12 12 11 10 13 15 16 17 18 18 19 30 38 42 49 59 66 76 88 86 52 41 48 40 59 60 71 72 70 67 50 35 49 61 63
18 17 17 14 14 12 12 11 10 16 12 10 16 15 15 14 14 14 14 14 17 22 31 39 52 62 69 78 81 56 40 40 41 36 51 63 73 74 69 66 68 67 77 67
17 16 18 16 14 14 13 13 11 10 9 9 10 12 14 14 14 14 14 13 15 18 22 34 42 53 63 73 72 54 40 43 41 43 41 42 63 67 66 67 70 67 73 91
19 19 19 19 18 16 16 14 13 13 18 18 12 12 14 15 16 15 14 14 15 21 29 32 41 52 64 71 75 67 41 48 34 39 44 46 37 52 63 68 66 61 61 64
19 19 18 18 19 18 18 17 16 14 14 15 14 13 18 18 19 18 16 15 16 21 28 27 43 50 62 71 75 64 46 51 33 29 33 44 45 38 39 42 46 48 46 46
19 19 19 18 18 18 17 17 17 17 17 16 15 14 15 15 16 17 17 17 17 20 23 22 39 54 61 69 73 53 51 56 42 28 29 32 42 46 48 47 49 50 50 51
20 20 19 19 18 17 17 17 16 16 16 15 14 13 16 18 19 19 19 19 20 20 22 19 49 58 61 63 64 57 48 54 47 26 25 28 30 33 34 38 39 40 43 44
21 23 22 18 17 16 18 17 19 17 16 14 14 14 14 17 22 19 19 22 25 29 29 20 48 62 59 59 56 63 42 55 50 35 36 40 35 38 37 43 40 32 33 36
27 26 24 22 21 20 19 19 20 21 19 17 17 18 18 19 27 24 22 24 26 32 39 22 55 65 57 60 50 53 40 47 50 46 54 55 55 64 65 63 66 55 53 48
33 31 29 27 24 23 22 20 20 20 20 20 20 19 19 20 21 21 23 25 29 42 50 34 64 62 48 46 41 37 42 45 48 49 55 59 62 65 67 68 66 59 65 59
34 35 33 30 28 27 26 25 24 24 24 24 22 21 21 21 21 22 27 39 43 42 40 53 69 70 36 40 40 39 40 47 51 54 57 59 63 64 66 69 71 69 65 70
39 40 44 41 37 36 29 29 28 30 26 27 26 26 25 26 25 30 47 43 40 32 21 65 48 57 37 37 40 42 42 45 49 55 57 57 60 59 60 64 68 71 72 74
39 37 37 37 37 34 32 31 30 32 33 30 28 27 32 33 34 46 50 42 38 34 25 26 25 33 40 37 38 39 44 46 46 49 53 55 60 62 63 64 66 68 73 75
36 36 38 38 39 39 33 31 31 37 42 38 40 36 40 49 41 73 83 70 54 48 28 25 25 26 35 38 37 35 41 46 49 50 53 56 60 64 64 68 70 72 75 78
42 39 38 37 40 36 34 34 33 42 51 49 64 69 62 59 65 76 73 67 62 85 47 31 41 27 28 35 35 35 39 40 41 48 51 57 61 61 56 54 56 64 75 77
37 39 49 56 42 43 47 44 47 54 47 48 67 83 78 63 46 48 52 49 50 97 82 48 78 26 27 36 36 36 33 41 43 43 51 46 41 40 40 47 52 64 75 85
41 40 53 50 52 51 53 61 66 69 64 68 79 87 83 67 43 40 45 54 80 86 88 78 88 45 26 30 28 29 47 48 46 40 31 31 30 33 46 53 66 77 81 94
50 53 56 59 54 59 66 66 74 61 70 68 74 79 84 83 59 48 61 88 90 83 97 91 93 60 34 32 39 37 52 49 44 36 33 27 31 36 34 33 99 98 98 100
55 55 59 60 56 53 47 60 69 66 69 71 67 82 74 61 54 45 46 67 56 61 88 82 100 52 47 42 44 44 54 49 44 38 29 24 27 32 31 39 68 100 99 100
49 48 48 44 48 52 55 60 65 81 75 66 70 93 60 73 56 65 48 78 50 45 43 83 98 53 55 52 39 56 58 53 48 37 27 25 23 21 21 30 59 80 90 99